Wind_Speed
3 3 4 4 4 5 2 1 1 3 3 3 3 6 8 3 3 3 9 16 14 8 2 4 6 7 6 7 8 9 8 9 9 11 10 11 11 12 12 12 14 15 15 16 16 16 16 17 17
4 4 4 2 5 3 3 2 2 2 6 9 6 2 6 3 2 9 11 12 9 6 5 6 7 7 7 6 8 7 8 8 8 9 9 9 10 11 12 12 13 14 15 16 17 16 15 17 17
4 3 3 4 3 3 3 2 4 4 7 1 4 6 3 3 4 11 11 13 8 6 6 8 7 7 6 6 6 6 6 6 7 8 8 8 9 10 12 13 14 14 14 15 17 17 16 16 17
4 5 4 4 3 1 3 5 5 6 3 6 3 6 2 2 6 10 17 11 3 6 7 8 7 7 7 6 6 6 6 6 7 9 9 9 10 10 12 12 14 15 15 15 15 16 18 18 17
4 3 4 4 1 2 2 5 5 3 4 2 0 4 2 2 11 19 15 8 1 7 10 7 6 6 7 6 6 6 6 7 7 9 9 8 9 10 12 13 14 14 15 15 15 15 16 16 17
4 3 4 2 2 2 2 3 3 3 2 4 5 4 3 13 19 17 12 6 5 6 6 7 7 4 4 6 6 6 6 6 7 8 8 8 9 10 11 12 14 14 15 15 15 15 16 16 16
5 4 3 4 5 2 3 3 5 4 3 2 8 4 1 11 16 16 10 6 7 5 4 4 3 4 4 5 5 5 5 5 7 8 8 8 9 9 10 11 12 14 15 15 16 15 15 16 16
4 4 3 1 4 3 3 3 4 3 2 4 2 5 5 15 20 16 13 11 8 6 3 2 2 3 4 4 5 4 5 5 7 8 8 9 7 10 10 11 12 14 16 15 15 15 14 16 16
3 4 2 5 5 2 5 4 2 1 5 2 3 4 2 28 23 19 15 12 9 8 4 1 2 3 3 4 2 2 4 4 6 8 9 10 8 8 9 10 13 14 18 14 14 15 16 17 19
5 3 5 3 2 4 5 3 7 4 3 1 1 3 21 28 24 21 18 15 13 10 5 2 3 3 2 1 0 1 3 4 5 8 9 10 8 8 8 8 12 15 17 15 15 15 16 18 19
2 3 3 1 1 6 6 4 4 8 4 7 7 8 18 24 22 21 19 18 16 11 7 4 4 3 3 2 1 1 3 3 4 7 10 10 7 7 9 7 12 17 19 17 16 15 16 17 18
4 2 2 2 2 4 6 7 4 5 3 4 10 21 16 14 19 21 20 18 15 13 7 6 6 4 3 2 2 1 2 2 4 6 9 9 9 8 10 10 10 14 16 18 21 17 14 15 15
3 2 3 3 5 4 6 3 4 6 3 9 18 13 11 16 19 18 20 19 15 14 10 7 6 4 3 2 1 1 1 0 2 4 8 8 9 8 8 9 9 11 13 16 21 21 17 17 18
2 2 3 2 2 4 3 2 1 4 6 9 12 10 11 16 20 17 19 20 19 15 12 9 8 5 4 3 2 3 1 1 1 4 7 7 9 8 7 9 10 11 12 13 17 20 20 20 21
5 2 3 2 3 2 3 4 7 5 7 11 10 9 8 17 19 24 24 22 19 18 14 11 10 7 5 4 3 3 2 2 2 3 5 6 6 7 9 9 10 11 12 12 13 16 17 19 21
3 3 4 1 4 0 4 7 4 9 11 10 10 9 9 14 25 26 24 22 21 19 18 13 11 10 8 5 6 4 3 4 4 3 3 5 6 7 8 8 9 11 12 13 13 17 19 20 22
5 2 2 5 7 2 3 6 2 8 9 10 10 10 10 8 20 26 25 25 22 23 19 16 14 13 10 8 8 7 8 7 5 4 4 4 5 5 6 7 8 10 11 13 14 15 18 22 24
4 4 3 4 4 3 3 12 5 9 9 13 11 9 9 10 17 30 26 26 24 24 21 18 16 14 13 10 10 11 12 11 9 6 5 4 4 4 5 6 8 9 10 12 13 13 15 18 23
2 3 4 4 1 3 7 11 12 11 9 9 10 10 12 14 20 28 28 28 26 25 24 22 20 17 17 14 13 13 14 13 12 9 8 6 5 5 5 6 7 8 10 11 13 15 18 21 25
2 3 6 3 2 5 6 16 13 11 15 18 17 14 15 9 8 20 28 29 30 29 27 25 23 20 20 17 15 16 13 14 13 11 10 8 7 6 5 6 6 8 8 9 11 14 15 16 19
1 2 3 4 6 2 7 8 3 2 2 9 11 9 11 14 14 12 26 33 32 32 30 27 24 23 22 19 17 17 16 16 14 14 13 10 9 7 7 8 7 8 9 9 10 11 13 13 15
2 0 2 4 5 3 4 5 6 1 5 7 10 11 15 14 10 14 22 29 38 38 32 28 26 26 24 21 21 21 20 19 18 15 13 11 10 9 10 10 10 9 9 9 9 10 11 11 13
3 2 1 1 2 4 3 3 8 3 6 8 11 14 15 14 14 15 24 34 43 40 37 32 28 28 27 26 24 22 22 20 16 14 14 13 12 11 10 11 11 11 10 10 10 11 11 11 11
1 1 5 4 3 2 3 3 6 3 3 6 3 9 13 13 12 18 27 31 32 38 38 34 32 31 29 28 26 25 24 22 19 18 16 15 14 13 12 11 11 12 11 10 11 12 11 11 12
5 5 4 4 4 5 1 1 10 6 5 5 6 8 9 9 9 11 15 23 30 36 38 36 35 35 33 31 29 28 26 23 23 20 18 17 16 15 12 12 12 12 12 12 12 13 12 12 12
2 4 4 4 2 5 3 6 6 4 5 6 7 6 5 8 9 12 20 26 30 36 40 40 38 38 36 34 32 30 27 25 24 21 19 18 17 15 13 12 13 12 12 12 12 13 14 12 13
2 1 3 4 2 2 4 7 10 4 6 5 7 6 7 7 9 12 18 27 31 34 40 44 42 40 38 37 34 32 29 27 26 23 20 20 17 16 14 14 14 14 13 13 13 14 14 14 14
1 4 2 3 2 5 5 6 5 4 6 7 6 8 8 6 7 8 16 25 31 36 40 43 44 43 40 37 36 34 31 28 25 23 23 21 19 17 16 16 16 15 14 14 14 14 14 15 13
2 1 3 3 4 4 2 6 7 6 2 6 7 7 7 8 9 10 16 25 31 34 36 41 44 43 41 38 36 35 33 30 27 26 25 23 20 19 18 17 17 17 16 15 15 15 15 14 15
3 6 6 4 4 2 4 7 5 9 6 4 8 7 7 7 9 8 15 22 27 32 35 39 41 43 43 40 37 35 33 31 30 29 27 23 23 20 20 18 19 18 17 16 15 15 15 14 15
Wind_Direction
87 18 3 30 55 62 40 59 159 96 66 13 17 84 109 61 54 162 137 136 145 145 74 69 52 57 50 46 44 42 40 29 30 24 22 20 17 19 20 20 13 7 5 6 7 4 3 0 358
48 34 46 76 81 62 279 307 97 86 140 144 93 82 46 71 102 128 134 137 129 92 47 64 73 74 70 61 54 42 35 32 30 25 22 22 20 18 16 14 11 8 3 -0 2 3 1 358 355
41 36 74 83 95 135 200 168 111 65 137 79 91 53 85 131 106 142 151 140 120 69 54 87 86 81 73 61 52 45 38 38 35 31 28 26 23 18 10 8 6 6 5 1 357 357 359 359 356
29 24 35 75 65 263 203 151 122 118 109 64 117 69 35 273 153 147 141 137 127 69 90 95 92 83 75 68 60 51 48 45 40 29 24 22 15 11 9 4 5 3 2 1 0 358 355 356 358
51 57 60 75 57 21 36 145 150 98 94 54 31 146 52 48 138 141 144 142 113 110 103 93 94 88 76 65 66 63 59 51 40 26 25 22 12 6 4 4 5 3 0 0 360 357 357 357 355
45 91 66 149 153 58 29 126 96 68 73 161 77 93 167 146 144 148 145 134 106 122 129 131 109 95 78 67 69 64 60 51 38 27 24 20 19 13 11 8 5 5 4 2 0 360 1 360 356
104 77 120 126 160 142 159 87 106 123 107 44 144 105 160 172 160 153 149 133 133 124 120 124 131 162 118 71 61 66 54 48 36 31 31 29 31 25 19 16 15 11 7 4 2 1 359 360 359
102 89 91 133 186 203 139 83 114 119 112 107 136 174 195 197 165 155 149 145 147 147 134 105 95 118 131 91 72 66 42 55 40 38 34 29 29 26 28 28 25 13 4 359 357 1 1 360 360
108 64 129 176 158 170 157 128 48 37 102 50 345 155 214 161 162 156 153 156 167 169 166 115 133 115 115 85 101 77 64 47 38 35 34 26 37 32 46 41 30 19 14 11 11 7 4 5 12
73 93 188 184 165 168 156 157 154 123 111 32 16 42 145 157 163 164 170 175 182 187 180 163 158 143 157 146 102 68 20 13 37 34 29 22 35 39 39 43 26 25 16 25 13 9 5 7 6
81 134 166 145 154 135 136 121 147 131 218 206 185 158 149 159 173 180 187 190 194 188 184 187 188 177 188 194 329 310 350 22 25 29 24 24 40 36 36 32 26 24 27 23 15 4 2 359 359
83 44 132 137 90 118 159 134 151 201 213 206 164 158 159 167 182 191 195 199 197 195 193 189 188 196 184 228 296 302 312 30 23 25 16 19 30 35 28 23 26 24 26 26 18 6 2 2 358
81 161 86 97 85 93 124 162 205 220 30 131 142 157 171 179 192 202 208 202 202 200 199 199 191 197 200 224 267 214 225 37 359 25 12 14 22 28 25 28 27 19 18 21 21 21 15 8 2
93 90 110 134 119 137 146 195 157 224 130 131 153 177 187 191 199 198 199 203 202 203 206 206 196 200 199 215 211 213 152 199 293 15 7 9 13 20 20 23 23 18 13 17 18 19 20 17 12
128 61 336 223 194 171 126 273 233 163 154 157 179 187 193 204 196 195 197 201 207 207 206 207 201 205 206 215 212 210 184 243 280 342 2 7 10 17 20 23 20 18 12 9 10 12 10 9 7
33 55 3 188 143 3 105 271 204 164 153 187 194 200 201 209 201 202 203 208 207 206 204 201 204 209 212 222 213 211 210 238 256 299 333 1 7 13 18 22 16 10 2 2 2 359 359 359 358
19 301 292 317 198 126 170 266 217 170 176 196 207 208 210 219 217 214 212 209 209 208 204 201 203 211 213 219 213 223 230 237 243 269 313 341 355 3 12 17 6 359 358 6 3 2 358 356 355
300 323 289 261 223 206 212 261 245 203 189 205 208 216 217 218 222 215 215 213 210 206 207 207 208 209 210 218 220 231 236 237 241 256 283 308 327 337 351 2 3 360 4 2 1 0 2 359 352
251 272 284 258 178 198 236 260 261 202 214 221 219 220 224 224 227 220 215 209 207 207 205 205 206 207 210 215 222 226 234 234 240 250 260 273 301 310 322 340 354 0 0 1 0 357 359 5 0
303 307 299 293 128 186 294 274 242 185 214 209 211 218 224 227 217 220 216 211 209 208 207 207 209 212 214 222 229 231 240 240 246 250 244 263 276 284 305 311 319 345 344 348 352 351 354 353 3
316 258 298 257 319 215 313 294 318 204 239 209 222 217 222 219 220 215 213 215 212 211 209 210 214 214 216 221 228 230 236 236 234 236 243 255 259 266 275 286 300 319 320 331 340 342 342 340 352
303 249 334 330 25 285 16 284 306 329 257 224 224 217 222 213 212 213 211 211 215 218 215 216 217 214 215 220 224 227 229 232 241 243 241 247 252 263 264 270 277 288 307 309 313 328 338 333 332
231 37 15 358 44 14 347 68 270 356 293 251 231 227 226 218 210 209 209 214 219 219 216 216 216 216 217 220 225 229 232 238 244 241 242 246 250 261 261 266 267 272 293 301 303 302 311 327 323
16 70 38 57 69 10 272 134 287 246 236 312 295 235 227 218 213 219 216 217 216 222 219 216 215 217 218 221 225 229 234 235 236 237 241 247 251 255 258 262 265 270 284 295 301 302 307 307 317
66 47 335 345 15 228 334 77 247 265 261 248 284 291 238 216 207 210 206 206 212 218 219 216 217 219 219 221 226 231 236 237 239 240 243 247 249 251 255 262 266 274 283 291 294 298 301 304 306
87 134 150 273 279 279 315 239 251 224 280 260 267 275 259 214 206 208 209 209 212 216 218 216 217 221 221 222 228 233 237 240 242 243 244 249 252 258 260 266 267 275 283 286 290 292 298 297 290
173 163 176 105 31 17 254 287 308 290 285 279 292 317 290 249 221 219 214 213 215 215 218 217 218 221 223 225 229 232 236 239 241 244 246 251 254 258 262 266 267 274 281 283 285 289 294 292 287
129 158 76 16 268 277 293 284 242 330 334 329 281 271 285 288 259 234 222 219 221 223 223 221 221 222 225 226 230 233 236 239 244 245 246 250 255 256 261 264 267 273 278 279 280 285 291 290 286
111 248 57 123 155 204 289 270 214 232 290 302 298 279 277 275 255 240 230 226 225 226 222 222 221 223 225 228 231 233 236 237 241 244 247 250 254 256 260 264 267 270 276 277 277 282 288 284 288
175 200 158 130 228 225 142 268 225 236 264 275 267 281 280 271 272 251 237 230 222 221 218 219 220 222 227 229 231 233 237 237 239 242 246 250 252 254 259 262 266 269 272 275 274 279 285 281 287
Height
815 815 814 814 842 850 862 858 849 855 861 864 862 865 874 880 877 882 885 885 886 887 887 887 886 886 886 885 884 883 883 881 881 879 877 876 875 873 872 871 870 868 866 864 862 860 858 856 854
815 815 815 824 855 867 866 855 856 854 862 867 866 870 875 881 879 882 886 887 887 887 887 886 887 887 886 886 885 884 883 882 881 880 879 878 876 874 873 872 871 869 867 864 862 861 859 856 854
816 816 824 841 861 868 866 856 857 860 863 861 870 874 877 881 880 882 883 886 887 886 886 887 888 888 887 887 886 885 884 884 883 881 880 879 877 875 873 872 870 869 867 865 862 860 858 856 854
816 818 830 853 859 856 855 857 858 862 864 864 870 879 880 880 880 881 885 887 887 887 887 888 888 888 888 888 887 886 885 884 883 882 880 879 877 876 874 872 870 868 867 865 863 860 857 855 854
818 827 852 861 859 854 854 855 857 859 865 868 868 882 882 880 881 883 885 887 887 888 889 889 889 889 889 889 888 887 886 886 884 883 881 880 878 876 875 873 871 869 867 864 863 861 859 856 854
829 834 861 869 861 855 856 855 856 863 865 871 875 880 883 882 882 884 885 887 887 888 889 890 890 890 890 890 889 889 888 887 886 884 882 880 879 877 875 873 871 869 867 865 863 861 859 857 855
835 848 858 864 865 859 857 855 863 865 866 868 872 881 884 884 884 885 886 887 888 888 889 890 890 890 890 890 890 889 889 888 886 885 883 880 879 877 876 874 872 870 868 865 863 861 859 857 856
834 845 857 861 865 860 857 858 862 863 869 870 871 881 884 880 883 885 887 888 888 889 889 889 889 889 890 890 890 889 889 888 886 885 883 881 878 877 877 876 873 871 868 866 863 861 859 857 855
829 857 867 860 862 856 857 860 863 865 868 871 872 872 872 876 881 884 886 887 888 888 888 889 889 889 889 889 889 888 888 887 886 884 883 881 879 877 876 876 874 872 869 867 864 862 859 856 853
843 861 856 851 850 855 856 856 863 866 871 872 872 872 872 876 880 882 883 885 886 887 888 888 888 888 888 888 887 887 886 886 885 883 883 882 879 878 877 876 875 872 869 866 865 862 859 856 852
843 856 849 850 849 851 856 860 861 868 871 868 868 872 873 876 879 880 881 883 884 886 887 887 888 888 888 889 888 887 887 886 885 884 882 882 879 878 877 876 875 873 869 867 864 863 860 857 853
848 848 847 849 849 852 857 857 861 862 858 857 861 866 871 874 876 877 880 882 884 885 886 887 887 888 888 889 888 887 888 887 885 884 883 883 881 878 878 877 875 874 870 867 864 862 860 857 854
847 849 848 849 851 854 854 857 859 860 858 858 863 868 870 873 874 876 878 881 883 884 886 887 887 888 888 888 888 887 887 886 886 883 883 883 881 879 878 877 875 874 871 868 865 862 859 856 853
849 851 852 850 850 851 855 857 857 858 861 863 865 868 869 871 872 875 877 878 880 882 884 886 887 887 887 887 887 887 885 886 887 884 884 883 880 879 879 876 875 874 872 869 866 863 860 857 853
852 855 855 854 853 854 853 861 857 856 862 864 866 868 869 869 871 871 872 874 876 879 882 883 885 885 886 886 887 887 886 886 886 885 883 882 881 880 877 876 875 873 871 869 866 864 861 858 854
855 859 867 854 857 856 857 862 851 859 862 866 867 868 868 867 866 868 870 872 874 877 878 880 882 884 884 885 885 885 885 885 885 884 883 882 880 880 878 876 874 872 871 868 866 863 860 857 854
867 868 863 858 858 859 862 858 850 861 862 865 867 867 866 865 865 865 867 868 870 873 876 878 879 881 882 883 884 884 883 884 884 884 882 881 880 879 878 876 875 873 871 868 866 864 860 856 853
867 866 861 863 857 860 863 862 854 861 862 859 863 865 865 863 858 860 863 865 868 870 873 875 877 879 881 881 882 882 882 881 882 882 881 880 880 879 878 876 874 873 871 869 866 864 862 858 853
855 859 863 854 853 858 861 857 848 854 860 861 861 862 860 857 854 857 860 863 866 868 870 872 874 877 878 879 880 879 878 879 880 880 880 880 879 878 877 875 874 872 870 868 866 864 861 857 853
855 860 864 854 851 859 856 844 838 842 841 843 846 853 852 853 853 854 857 859 861 863 866 869 871 873 875 876 877 877 877 877 877 878 878 877 877 877 875 875 873 871 869 868 866 864 861 859 857
858 861 861 863 856 853 856 843 826 833 836 839 840 840 843 845 847 848 851 854 857 859 862 864 866 868 870 872 873 873 874 874 874 875 875 875 875 874 874 873 872 870 869 867 866 864 862 860 858
862 858 859 861 868 871 857 866 834 829 833 837 837 839 833 836 838 841 844 846 849 852 857 860 862 863 865 867 868 868 868 869 870 871 872 872 872 872 871 871 870 869 867 866 864 863 861 859 857
861 858 861 861 870 875 867 877 839 831 821 822 828 830 827 827 829 831 834 837 839 845 849 853 856 858 860 861 863 863 863 865 867 868 868 869 869 869 869 868 867 866 865 864 862 861 859 858 856
858 861 870 877 882 883 865 871 845 829 816 814 813 820 819 821 823 825 826 831 835 839 843 848 850 852 855 857 858 858 859 860 862 864 864 865 865 866 865 865 864 864 862 861 859 858 857 856 854
864 876 887 874 884 876 865 872 841 817 815 814 809 810 813 816 819 821 823 825 828 831 837 841 844 846 849 851 853 853 854 856 857 859 860 861 861 861 862 861 860 860 859 858 856 855 854 852 851
865 874 891 871 887 882 870 870 829 813 812 812 811 808 806 810 811 813 814 817 820 823 827 833 836 839 843 845 846 849 851 852 853 854 856 856 857 857 858 858 857 856 856 855 854 852 850 849 848
868 876 874 886 894 895 872 849 819 810 809 809 809 807 806 807 807 806 808 810 812 815 818 822 827 832 836 838 841 843 846 848 849 851 852 852 853 853 854 854 854 853 852 852 851 849 847 846 844
864 871 878 893 885 874 872 862 842 807 806 808 806 806 804 804 805 804 803 803 805 807 811 816 819 822 827 831 834 837 840 843 845 847 847 848 849 850 850 850 850 850 849 848 847 846 844 842 841
876 876 881 886 892 886 885 857 826 812 802 806 806 804 802 800 798 796 794 795 797 801 805 808 812 817 820 824 828 831 833 837 839 840 842 843 844 845 845 846 846 846 845 844 843 842 841 839 838
863 867 873 895 875 900 917 871 810 812 808 803 803 801 797 796 791 789 788 790 792 794 796 799 805 809 813 818 821 824 827 830 832 833 836 838 839 840 840 842 842 842 841 840 839 838 837 835 834